{"data":{"norad_id":32768,"epoch":"2026-05-25T04:31:38.768160Z","epoch_age_seconds":62211,"freshness":"FRESH","line1":"1 32768U 08018B   26145.18864315 -.00000278  00000+0  00000+0 0  9993","line2":"2 32768   1.1847  82.6504 0002751 342.0138 181.0194  1.00269350 66428","mean_motion":1.0026935,"eccentricity":0.0002751,"inclination_deg":1.1847,"raan_deg":82.6504,"arg_perigee_deg":342.0138,"mean_anomaly_deg":181.0194,"bstar":0,"rev_number":6642,"period_min":1436.1317790531,"perigee_km":35775.677888343,"apogee_km":35798.877299453,"semimajor_km":42165.414593898,"source":"CELESTRAK","updated_at":"2026-05-25T13:38:13.857863Z"}}